{"data":{"norad_id":65104,"intl_designator":"2025-167AC","name":"STARLINK-34481","alt_names":[],"object_type":"PAYLOAD","status":"ACTIVE","operator":null,"country":"US","launch_date":"2025-08-04","launch_site_code":"AFETR","launch_vehicle":null,"mission":null,"orbit_class":"UNKNOWN","rcs_meters":null,"size_class":null,"mass_kg":null,"dimensions":null,"purposes":["comms"],"wikipedia_slug":null,"has_3d_model":false,"image_url":null,"decayed_at":null,"tle_current":{"epoch":"2026-09-20T12:56:18.416256Z","epoch_age_seconds":117564,"freshness":"FRESH","line1":"1 65104U 25167AC  26263.53910204  .00023255  00000+0  69692-3 0  9991","line2":"2 65104  53.1582 193.6763 0001340  84.2144 275.9011 15.34415840 63412","mean_motion":15.3441584,"eccentricity":0.000134,"inclination_deg":53.1582,"raan_deg":193.6763,"arg_perigee_deg":84.2144,"mean_anomaly_deg":275.9011,"bstar":0.00069692,"rev_number":6341,"period_min":93.846789277149,"perigee_km":461.73949451044,"apogee_km":463.57282707753,"semimajor_km":6840.793160794,"source":"CELESTRAK","updated_at":"2026-09-21T09:00:35.526788Z"}}}